W9GWP Weather Reports


Display with metric or nautical units.
time (UTC)temp
F
wind
direction
speed
MPH
gust
MPH
rain 1hr
in
rain 24hr
in
rain mn
in
humidity
%
barometer
mb
20260502231643 56 223 5.0 5.0 0.00 0.00 0.00 40 1044.8
20260502230143 55 279 2.0 7.0 0.00 0.00 0.00 43 1045.0
20260502224644 56 225 3.0 6.0 0.00 0.00 0.00 41 1045.2
20260502223142 56 209 3.0 7.0 0.00 0.00 0.00 41 1045.1
20260502221637 55 274 2.0 6.0 0.00 0.00 0.00 41 1045.2
20260502220133 55 290 4.0 5.0 0.00 0.00 0.00 42 1045.5
20260502214631 55 337 4.0 7.0 0.00 0.00 0.00 40 1045.3
20260502213128 55 226 7.0 7.0 0.00 0.00 0.00 41 1045.2
20260502211626 56 270 2.0 9.0 0.00 0.00 0.00 40 1045.5
20260502210123 55 286 5.0 9.0 0.00 0.00 0.00 41 1045.8
20260502204619 54 285 5.0 6.0 0.00 0.00 0.00 41 1045.7
20260502203118 54 281 7.0 7.0 0.00 0.00 0.00 41 1046.0
20260502201613 54 352 5.0 5.0 0.00 0.00 0.00 43 1045.9
20260502200109 54 301 2.0 4.0 0.00 0.00 0.00 40 1046.2
20260502194606 53 327 4.0 5.0 0.00 0.00 0.00 43 1046.4
20260502193101 53 331 2.0 4.0 0.00 0.00 0.00 44 1046.6
20260502191558 53 63 0.0 3.0 0.00 0.00 0.00 43 1047.0
20260502190056 52 239 3.0 7.0 0.00 0.00 0.00 42 1047.0
20260502184555 52 251 4.0 7.0 0.00 0.00 0.00 43 1047.4
20260502183050 53 18 0.0 5.0 0.00 0.00 0.00 45 1047.6
20260502181545 51 346 0.0 4.0 0.00 0.00 0.00 44 1047.6
20260502163037 50 282 1.0 3.0 0.00 0.00 0.00 50 1048.4
20260502161532 51 350 3.0 6.0 0.00 0.00 0.00 46 1048.6
20260502151524 48 322 3.0 5.0 0.00 0.00 0.00 51 1049.1
20260502122948 38 233 2.0 5.0 0.00 0.00 0.00 88 1049.1
20260502121445 36 234 1.0 3.0 0.00 0.00 0.00 93 1048.9
20260502114437 34 173 0.0 0.0 0.00 0.00 0.00 96 1048.6
20260502112936 32 185 0.0 2.0 0.00 0.00 0.00 97 1048.4
20260502111433 30 111 0.0 0.0 0.00 0.00 0.00 97 1048.4
20260502105931 30 114 0.0 0.0 0.00 0.00 0.00 97 1048.6
20260502104429 30 126 1.0 1.0 0.00 0.00 0.00 97 1048.7
20260502102926 30 120 0.0 1.0 0.00 0.00 0.00 97 1048.1
20260502101425 30 114 0.0 0.0 0.00 0.00 0.00 97 1048.6
20260502091419 28 120 0.0 0.0 0.00 0.00 0.00 96 1048.4
20260502071354 29 66 0.0 0.0 0.00 0.00 0.00 95 1048.3
20260502065855 29 105 0.0 1.0 0.00 0.00 0.00 95 1048.2
20260502064354 30 148 0.0 1.0 0.00 0.00 0.00 95 1048.6
20260502062851 30 83 0.0 1.0 0.00 0.00 0.00 95 1048.7
20260502061350 30 120 0.0 2.0 0.00 0.00 0.00 95 1048.6
20260502055851 30 103 0.0 1.0 0.00 0.00 0.00 95 1048.9
20260502054350 31 98 0.0 0.0 0.00 0.00 0.00 95 1048.8
20260502052848 31 98 0.0 0.0 0.00 0.00 0.00 94 1049.0
20260502051343 31 98 0.0 0.0 0.00 0.00 0.00 93 1048.9
20260502045838 31 98 0.0 0.0 0.00 0.04 0.04 93 1048.9
20260502044333 31 98 0.0 0.0 0.00 0.04 0.04 93 1048.4
20260502042828 32 98 0.0 0.0 0.00 0.04 0.04 92 1048.3
20260502041326 32 98 0.0 0.0 0.00 0.04 0.04 92 1048.4
20260502035822 32 106 0.0 0.0 0.00 0.04 0.04 90 1048.4
20260502034320 32 106 0.0 0.0 0.00 0.04 0.04 89 1048.6
20260502032818 32 106 0.0 0.0 0.00 0.04 0.04 88 1048.3
20260502031316 32 106 0.0 0.0 0.00 0.04 0.04 86 1048.6
20260502025815 32 106 0.0 0.0 0.00 0.04 0.04 84 1048.3
20260502024313 34 106 0.0 0.0 0.00 0.04 0.04 83 1048.1
20260502022812 34 106 0.0 0.0 0.00 0.04 0.04 80 1048.2
20260502021308 35 106 0.0 1.0 0.00 0.04 0.04 77 1048.1
20260502015806 37 105 1.0 2.0 0.00 0.04 0.04 74 1047.9
20260502014302 37 69 1.0 2.0 0.00 0.04 0.04 73 1047.8
20260502012803 37 81 2.0 2.0 0.00 0.04 0.04 72 1047.6
20260502011259 38 102 1.0 3.0 0.00 0.04 0.04 72 1047.8
20260502005756 39 26 0.0 2.0 0.00 0.04 0.04 71 1047.8
20260502004253 39 101 0.0 3.0 0.00 0.04 0.04 70 1047.7
20260502002749 39 90 0.0 5.0 0.00 0.04 0.04 70 1047.7
20260502001248 40 71 3.0 5.0 0.00 0.04 0.04 68 1047.4
20260501235743 41 82 1.0 2.0 0.00 0.04 0.04 71 1047.4
20260501234239 41 85 0.0 4.0 0.00 0.04 0.04 72 1047.4